Lancaster, CA

1:21 PM PDT on June 23, 2018 (GMT -0700)
Gen Fox

Weather History for KWJF - October, 2017

Change the Weather History Date:

Wednesday, October 11, 2017

  Actual Average Record
Temperature  
Mean Temperature 61 °F 64 °F  
Max Temperature 82 °F 81 °F 97 °F (1954)
Min Temperature 39 °F 48 °F 34 °F (2013)
Degree Days  
Heating Degree Days 4    
Month to date heating degree days 39  
Since 1 July heating degree days 59  
Cooling Degree Days 0    
Month to date cooling degree days 20  
Year to date cooling degree days 2191  
Growing Degree Days 12 (Base 50)    
Moisture  
Dew Point 23 °F    
Average Humidity 28    
Maximum Humidity 46    
Minimum Humidity 9    
Precipitation  
Precipitation 0.00 in 0.01 in 0.61 in (1957)
Month to date precipitation 0.00 0.10  
Year to date precipitation 4.62 5.35  
Snow  
Snow 0.00 in - 0.00 in ()
Month to date snowfall 0.0  
Since 1 July snowfall 0.0  
Since 1 September snowfall 0.0  
Snow Depth 0.00 in    
Sea Level Pressure  
Sea Level Pressure 29.91 in    
Wind  
Wind Speed 12 mph (West)    
Max Wind Speed 29 mph    
Max Gust Speed 35 mph    
Visibility 10 miles    
Events      
T = Trace of Precipitation, MM = Missing Value Source: NWS Daily Summary

Daily Weather History Graph

Daily Weather History Graph

Search for Another Location

Airport or City:

Astronomy

Oct. 11, 2017 Rise Set
Actual Time 6:55 AM PDT 6:22 PM PDT
Civil Twilight 6:30 AM PDT 6:48 PM PDT
Nautical Twilight 6:01 AM PDT 7:17 PM PDT
Astronomical Twilight 5:31 AM PDT 7:46 PM PDT
Moon 11:40 PM PDT (10/11) 1:07 PM PDT (10/11)
Length of Visible Light 12h 17m
Length of Day
11h 27m
Waning Gibbous, 58% of the Moon is Illuminated
Oct 11
Waning Gibbous
Oct 12
Last Quarter
Oct 19
New
Oct 27
First Quarter
Nov 3
Full

Hourly Weather History & Observations

Time (PDT) Temp. Windchill Dew Point Humidity Pressure Visibility Wind Dir Wind Speed Gust Speed Precip Events Conditions
12:56 AM 48.0 °F - 18.0 °F 30% 29.93 in 10.0 mi West 5.8 mph - N/A   Clear
1:56 AM 48.0 °F - 18.0 °F 30% 29.92 in 10.0 mi Calm Calm - N/A   Clear
2:56 AM 45.0 °F - 16.0 °F 31% 29.92 in 10.0 mi Calm Calm - N/A   Clear
3:56 AM 44.1 °F - 16.0 °F 32% 29.90 in 10.0 mi Calm Calm - N/A   Clear
4:56 AM 42.1 °F 39.2 °F 16.0 °F 35% 29.91 in 10.0 mi NW 4.6 mph - N/A   Clear
5:56 AM 42.1 °F - 16.0 °F 35% 29.92 in 10.0 mi Calm Calm - N/A   Clear
6:56 AM 41.0 °F - 12.9 °F 32% 29.94 in 10.0 mi Calm Calm - N/A   Clear
7:56 AM 45.0 °F - 17.1 °F 33% 29.95 in 10.0 mi Calm Calm - N/A   Clear
8:56 AM 53.1 °F - 19.0 °F 26% 29.96 in 10.0 mi Calm Calm - N/A   Clear
9:56 AM 62.1 °F - 21.9 °F 21% 29.94 in 10.0 mi Calm Calm - N/A   Clear
10:56 AM 73.0 °F - 21.9 °F 15% 29.92 in 10.0 mi ENE 3.5 mph - N/A   Clear
11:56 AM 80.1 °F - 19.9 °F 11% 29.90 in 10.0 mi SW 15.0 mph 25.3 mph N/A   Clear
12:56 PM 81.0 °F - 18.0 °F 10% 29.88 in 10.0 mi SSW 17.3 mph - N/A   Clear
1:56 PM 82.0 °F - 19.9 °F 10% 29.86 in 10.0 mi WSW 18.4 mph - N/A   Clear
2:56 PM 81.0 °F - 21.0 °F 11% 29.85 in 10.0 mi WSW 19.6 mph 27.6 mph N/A   Clear
5:56 PM 75.0 °F - 32.0 °F 21% 29.86 in 10.0 mi WSW 17.3 mph - N/A   Clear
6:56 PM 68.0 °F - 28.9 °F 23% 29.88 in 10.0 mi West 21.9 mph - N/A   Clear
7:56 PM 64.9 °F - 33.1 °F 31% 29.90 in 10.0 mi West 21.9 mph - N/A   Clear
8:56 PM 64.0 °F - 33.1 °F 31% 29.90 in 10.0 mi West 16.1 mph - N/A   Clear
9:56 PM 64.0 °F - 35.1 °F 34% 29.91 in 10.0 mi West 20.7 mph - N/A   Clear
10:56 PM 61.0 °F - 39.0 °F 44% 29.91 in 6.0 mi West 21.9 mph - N/A   Haze
11:56 PM 59.0 °F - 37.9 °F 46% 29.90 in 5.0 mi West 24.2 mph - N/A   Haze